SCP
0 0 0 0 0 0 0 0 0 0 0 0 0 0 0 0 0 0 0 0 0 0 0 0 0 0 0 0 0 0 0 0 0 0 0 0 0 0
0 0 0 0 0 0 0 0 0 0 0 0 0 0 0 0 0 0 0 0 0 0 0 0 0 0 0 0 0 0 0 0 0 0 0 0 0 0
0 0 0 0 0 0 0 0 0 0 0 0 0 0 0 0 0 0 0 0 0 0 0 0 0 0 0 0 0 0 0 0 0 0 0 0 0 0
0 0 0 0 0 0 0 0 0 0 0 0 0 0 0 0 0 0 0 0 0 0 0 0 0 0 0 0 0 0 0 0 0 0 0 0 0 0
0 0 0 0 0 0 0 0 0 0 0 0 0 0 0 0 0 0 0 0 0 0 0 0 0 0 0 0 0 0 0 0 0 0 0 0 0 0
0 0 0 0 0 0 0 0 0 0 0 0 0 0 0 0 0 0 0 0 0 0 0 0 0 0 0 0 0 0 0 0 0 0 0 0 0 0
0 0 0 0 0 0 0 0 0 0 0 0 0 0 0 0 0 0 0 0 0 0 0 0 0 0 0 0 0 0 0 0 0 0 0 0 0 0
0 0 0 0 0 0 0 0 0 0 0 0 0 0 0 0 0 0 0 0 0 0 0 0 0 0 0 0 0 0 0 0 0 0 0 0 0 0
0 0 0 0 0 0 0 0 0 0 0 0 0 0 0 0 0 0 0 0 0 0 0 0 0 0 0 0 0 0 0 0 0 0 0 0 0 0
0 0 0 0 0 0 0 0 0 0 0 0 0 0 0 0 0 0 0 0 0 0 0 0 0 0 0 0 0 0 0 0 0 0 0 0 0 0
0 0 0 0 0 0 0 0 0 0 0 0 0 0 0 0 0 0 0 0 0 0 0 0 0 0 0 0 0 0 0 0 0 0 0 0 0 0
0 0 0 0 0 0 0 0 0 0 0 0 0 0 0 0 0 0 0 0 0 0 0 0 0 0 0 0 0 0 0 0 0 0 0 0 0 0
0 0 0 0 0 0 0 0 0 0 0 0 0 0 0 0 0 0 0 0 0 0 0 0 0 0 0 0 0 0 0 0 0 0 0 0 0 0
0 0 0 0 0 0 0 0 0 0 0 0 0 0 0 0 0 0 0 0 0 0 0 0 0 0 0 0 0 0 0 0 0 0 0 0 0 0
0 0 0 0 0 0 0 0 0 0 0 0 0 0 0 0 0 0 0 0 0 0 0 0 0 0 0 0 0 0 0 0 0 0 0 0 0 0
0 0 0 0 0 0 0 0 0 0 0 0 0 0 0 0 0 0 0 0 0 0 0 0 0 0 0 0 0 0 0 0 0 0 0 0 0 0
0 0 0 0 0 0 0 0 0 0 0 0 0 0 0 0 0 0 0 0 0 0 0 0 0 0 0 0 0 0 0 0 0 0 0 0 0 0
0 0 0 0 0 0 0 0 0 0 0 0 0 0 0 0 0 0 0 0 0 0 0 0 0 0 0 0 0 0 0 0 0 0 0 0 0 0
0 0 0 0 0 0 0 0 0 0 0 0 0 0 0 0 0 0 0 0 0 0 0 0 0 0 0 0 0 0 0 0 0 0 0 0 0 0
0 0 0 0 0 0 0 0 0 0 0 0 0 0 0 0 0 0 0 0 0 0 0 0 0 0 0 0 0 0 0 0 0 0 0 0 0 0
0 0 0 0 0 0 0 0 0 0 0 0 0 0 0 0 0 0 0 0 0 0 0 0 0 0 0 0 0 0 0 0 0 0 0 0 0 0
0 0 0 0 0 0 0 0 0 0 0 0 0 0 0 0 0 0 0 0 0 0 0 0 0 0 0 0 0 0 0 0 0 0 0 0 0 0
0 0 0 0 0 0 0 0 0 0 0 0 0 0 0 0 0 0 0 0 0 0 0 0 0 0 0 0 0 0 0 0 0 0 0 0 0 0
Wind_Speed
2 2 1 1 1 2 2 2 3 1 1 2 1 1 1 1 2 2 2 5 6 6 7 7 7 7 8 8 8 8 8 9 10 10 11 12 12 12
1 1 1 1 1 1 1 2 2 3 2 2 2 2 1 0 2 1 2 4 5 6 7 8 8 8 7 8 7 7 7 7 8 8 9 9 10 10
0 1 1 1 1 1 1 1 2 2 2 2 1 1 0 0 0 1 1 2 3 6 7 8 8 8 8 8 7 7 7 7 7 8 9 10 11 11
1 1 1 1 1 1 1 1 1 2 3 2 1 0 1 2 1 1 1 1 2 5 7 7 8 8 8 8 7 7 7 7 7 8 8 10 11 12
2 2 2 2 1 1 2 2 1 1 2 2 1 1 0 0 0 0 0 0 2 3 5 6 6 7 7 8 8 8 8 8 8 8 9 9 10 11
1 2 2 3 3 3 2 2 2 1 1 1 1 1 1 0 1 0 0 1 1 1 1 2 4 5 6 7 8 8 8 9 9 9 9 9 10 10
0 1 1 2 3 3 2 3 2 2 1 1 1 0 0 0 1 1 0 1 1 0 0 1 1 2 3 5 7 8 8 9 9 9 9 9 10 10
1 1 1 1 1 2 3 4 5 4 3 2 1 1 2 2 1 1 1 1 1 1 0 1 1 2 2 3 5 8 9 9 9 9 9 9 10 10
1 1 1 1 0 1 0 1 2 3 4 4 3 3 3 3 2 2 2 2 2 2 0 1 1 2 2 3 6 7 8 8 9 9 9 9 9 10
1 2 1 1 1 2 1 1 0 1 1 2 3 3 3 3 3 3 3 1 1 1 1 1 1 2 2 2 4 6 6 7 7 8 8 9 9 9
1 1 1 1 2 3 3 2 0 1 1 1 1 1 1 1 2 2 2 1 1 1 1 1 1 1 1 2 2 4 5 6 6 7 7 8 8 8
1 1 1 1 1 3 3 3 2 1 0 1 2 3 2 2 2 2 3 2 1 1 1 1 1 0 2 2 1 2 2 3 5 6 7 7 6 4
1 0 1 0 2 2 3 2 3 2 1 2 2 2 2 2 2 1 1 2 2 2 2 1 1 1 1 2 2 1 1 1 2 3 5 6 6 4
2 1 1 1 3 3 2 3 3 3 2 2 2 1 1 1 1 1 1 0 1 1 1 1 1 2 1 1 2 2 2 1 1 2 2 4 5 6
2 2 2 3 4 3 5 5 4 3 2 2 1 0 0 1 1 1 2 2 3 2 2 1 0 1 1 2 2 1 2 2 2 2 2 2 2 2
2 2 4 5 4 4 4 3 2 2 2 2 1 1 1 2 2 2 1 2 2 3 4 4 2 1 0 1 1 2 1 2 3 3 2 2 2 2
4 2 2 2 2 2 2 2 2 2 2 2 2 2 2 2 2 2 2 2 2 2 3 4 4 2 1 1 0 1 1 2 2 3 3 3 3 3
6 3 3 2 2 2 2 2 2 2 2 2 2 2 2 2 2 2 2 2 2 2 2 3 3 3 3 3 1 1 1 2 2 3 2 3 4 3
4 3 3 3 3 3 2 2 2 1 2 2 2 2 2 2 2 2 2 2 2 2 2 2 3 2 2 3 4 2 1 3 3 3 2 3 4 5
3 4 4 3 3 3 3 3 2 2 2 2 2 2 2 2 2 2 2 1 1 1 2 2 2 2 1 2 3 3 3 2 3 4 4 3 4 6
4 4 4 4 4 3 3 3 3 3 3 2 2 2 2 2 2 2 1 2 2 1 1 2 3 5 2 1 2 4 4 4 4 3 4 4 4 4
5 5 4 4 4 4 4 4 4 3 3 2 2 2 2 2 2 2 1 1 0 0 1 2 3 3 2 1 3 4 5 5 6 7 6 5 3 4
5 5 5 5 4 4 4 5 5 3 3 3 2 2 2 1 1 1 1 0 0 1 1 2 2 2 2 2 3 4 5 6 5 5 5 7 10 11
Wind_Direction
190 183 182 202 185 174 164 154 149 152 281 283 288 279 248 188 197 194 196 209 210 210 206 204 207 208 210 215 218 220 220 218 216 218 219 220 219 217
193 174 195 216 207 181 171 165 161 160 203 250 246 252 242 204 186 186 208 217 219 218 212 209 208 209 210 213 216 216 217 216 216 221 223 223 222 223
202 180 211 202 189 191 168 155 165 156 181 263 266 263 181 194 229 239 204 213 224 222 217 212 210 209 209 209 211 211 214 216 219 224 226 226 226 225
231 179 200 174 176 183 165 172 180 175 168 211 260 276 238 212 201 211 214 221 230 227 222 217 212 210 209 209 210 212 215 218 224 229 232 232 232 231
210 190 193 159 169 188 179 180 191 179 164 179 225 260 272 218 115 323 220 269 249 227 215 212 211 214 216 215 214 217 220 222 225 228 233 239 237 235
212 200 197 185 192 189 181 184 173 152 150 159 187 236 255 291 116 132 336 328 287 267 211 204 212 218 222 224 223 222 224 226 227 230 234 236 239 240
296 245 229 206 198 190 180 180 162 153 151 150 174 162 276 189 180 181 193 315 307 280 161 233 210 226 232 232 230 227 228 228 228 230 234 238 239 241
248 288 285 273 217 196 185 177 172 168 172 171 182 200 232 223 190 167 148 105 295 291 97 283 208 238 243 231 233 233 232 231 231 231 234 238 240 242
225 249 284 294 205 157 182 148 192 201 186 173 184 208 206 208 179 177 186 186 222 247 122 262 244 253 254 247 235 233 234 234 235 236 237 239 242 245
224 211 217 267 243 186 165 137 258 276 232 191 192 215 219 213 195 189 184 173 254 265 168 223 251 251 273 266 253 240 236 237 240 243 244 244 245 246
287 218 194 229 252 175 149 149 91 322 305 157 161 200 236 216 164 135 141 142 249 273 190 180 244 277 283 281 278 265 257 254 256 257 255 252 251 251
336 330 242 203 219 155 148 151 163 251 67 62 49 36 46 56 80 140 165 162 175 251 225 168 210 10 313 297 302 311 290 278 275 273 271 266 259 249
190 285 301 334 108 138 150 161 184 169 133 109 80 46 38 44 32 42 136 160 168 225 224 167 186 173 208 289 309 302 299 299 291 278 272 271 263 238
183 203 218 105 99 102 118 128 121 108 99 92 83 59 40 18 357 6 23 64 172 215 241 161 179 189 190 239 278 306 316 301 287 279 279 287 272 259
171 171 144 111 96 82 82 94 94 93 99 97 97 61 320 334 8 12 17 32 35 31 32 42 135 213 194 214 245 278 306 306 304 300 298 284 270 263
140 117 104 93 84 78 69 62 67 96 114 117 114 49 35 44 34 25 29 20 37 9 7 15 12 26 274 253 234 276 290 299 318 316 306 297 286 264
140 104 92 91 87 72 63 58 56 68 80 82 91 77 59 54 35 25 41 50 54 14 353 355 358 2 320 241 308 301 308 311 311 317 314 303 289 276
137 136 144 147 147 143 126 95 71 74 76 87 87 85 82 79 64 46 51 65 65 32 5 350 357 8 9 4 360 321 329 310 307 308 303 298 297 292
140 155 162 162 157 151 143 131 120 98 88 91 93 89 89 83 78 65 57 59 53 34 8 4 16 34 12 324 320 5 349 319 317 311 296 283 286 293
160 165 167 163 156 151 145 134 122 104 93 93 90 85 85 88 81 70 61 63 54 40 18 11 12 1 282 269 285 309 333 321 319 312 304 292 281 286
169 165 163 158 154 150 145 137 131 124 115 107 100 94 93 95 93 86 77 53 53 45 17 337 307 313 295 327 315 310 313 314 306 296 305 309 310 311
168 166 164 158 154 150 145 139 132 127 123 116 113 108 103 103 110 105 97 81 44 348 316 312 325 344 6 346 308 304 310 317 317 312 304 291 295 298
170 165 162 160 156 150 147 144 141 140 140 136 131 128 125 123 128 127 120 97 18 336 329 327 337 343 327 306 298 302 311 317 319 320 310 304 296 290